owner,sensor,date,latitude,longitude,vertical_datum,mass_concentration_of_oxygen_in_sea_water,qcFlag 
SCCF RECON,ioos:station:SCCF:18:1,2013-12-01T00:00:00Z,26.6955,-81.8138,1.53,6.64,1111122 
SCCF RECON,ioos:station:SCCF:18:1,2013-12-01T01:00:00Z,26.6955,-81.8138,1.49,6.67,1111122 
SCCF RECON,ioos:station:SCCF:18:1,2013-12-01T02:00:00Z,26.6955,-81.8138,1.53,6.83,1111122 
SCCF RECON,ioos:station:SCCF:18:1,2013-12-01T03:00:00Z,26.6955,-81.8138,1.58,6.79,1111122 
SCCF RECON,ioos:station:SCCF:18:1,2013-12-01T04:00:00Z,26.6955,-81.8138,1.66,6.72,1111122 
SCCF RECON,ioos:station:SCCF:18:1,2013-12-01T05:00:00Z,26.6955,-81.8138,1.71,6.79,1111122 
SCCF RECON,ioos:station:SCCF:18:1,2013-12-01T06:00:00Z,26.6955,-81.8138,1.73,6.94,1111122 
SCCF RECON,ioos:station:SCCF:18:1,2013-12-01T07:00:00Z,26.6955,-81.8138,1.77,6.96,1111122 
SCCF RECON,ioos:station:SCCF:18:1,2013-12-01T08:00:00Z,26.6955,-81.8138,1.78,6.61,1111122 
SCCF RECON,ioos:station:SCCF:18:1,2013-12-01T09:00:00Z,26.6955,-81.8138,1.714,6.42,1111122 
SCCF RECON,ioos:station:SCCF:18:1,2013-12-01T10:00:00Z,26.6955,-81.8138,1.63,6.34,1111122 
SCCF RECON,ioos:station:SCCF:18:1,2013-12-01T11:00:00Z,26.6955,-81.8138,1.56,6.38,1111122 
SCCF RECON,ioos:station:SCCF:18:1,2013-12-01T12:00:00Z,26.6955,-81.8138,1.52,6.36,1111122 
SCCF RECON,ioos:station:SCCF:18:1,2013-12-01T13:00:00Z,26.6955,-81.8138,1.48,6.22,1111122 
SCCF RECON,ioos:station:SCCF:18:1,2013-12-01T14:00:00Z,26.6955,-81.8138,1.42,6.24,1111122 
SCCF RECON,ioos:station:SCCF:18:1,2013-12-01T15:00:00Z,26.6955,-81.8138,1.39,6.19,1111122 
SCCF RECON,ioos:station:SCCF:18:1,2013-12-01T16:00:00Z,26.6955,-81.8138,1.41,6.22,1111122 
SCCF RECON,ioos:station:SCCF:18:1,2013-12-01T17:00:00Z,26.6955,-81.8138,1.43,6.42,1111122 
SCCF RECON,ioos:station:SCCF:18:1,2013-12-01T18:00:00Z,26.6955,-81.8138,1.51,6.79,1111122 
SCCF RECON,ioos:station:SCCF:18:1,2013-12-01T19:00:00Z,26.6955,-81.8138,1.56,6.97,1111122 
SCCF RECON,ioos:station:SCCF:18:1,2013-12-01T20:00:00Z,26.6955,-81.8138,1.61,7.05,1111122 
SCCF RECON,ioos:station:SCCF:18:1,2013-12-01T21:00:00Z,26.6955,-81.8138,1.68,6.88,1111122 
SCCF RECON,ioos:station:SCCF:18:1,2013-12-01T22:00:00Z,26.6955,-81.8138,1.68,6.87,1111122 
SCCF RECON,ioos:station:SCCF:18:1,2013-12-01T23:00:00Z,26.6955,-81.8138,1.66,7.07,1111122 
SCCF RECON,ioos:station:SCCF:18:1,2013-12-02T00:00:00Z,26.6955,-81.8138,1.62,6.85,1111122 
SCCF RECON,ioos:station:SCCF:18:1,2013-12-02T01:00:00Z,26.6955,-81.8138,1.603,6.61,1111122 
SCCF RECON,ioos:station:SCCF:18:1,2013-12-02T02:00:00Z,26.6955,-81.8138,1.619,6.37,1111122 
SCCF RECON,ioos:station:SCCF:18:1,2013-12-02T03:00:00Z,26.6955,-81.8138,1.63,6.58,1111122 
SCCF RECON,ioos:station:SCCF:18:1,2013-12-02T04:00:00Z,26.6955,-81.8138,1.7,6.77,1111122 
SCCF RECON,ioos:station:SCCF:18:1,2013-12-02T05:00:00Z,26.6955,-81.8138,1.78,6.92,1111122 
SCCF RECON,ioos:station:SCCF:18:1,2013-12-02T06:00:00Z,26.6955,-81.8138,1.84,6.82,1111122 
SCCF RECON,ioos:station:SCCF:18:1,2013-12-02T07:00:00Z,26.6955,-81.8138,1.88,6.9,1111122 
SCCF RECON,ioos:station:SCCF:18:1,2013-12-02T08:00:00Z,26.6955,-81.8138,1.91,6.68,1111122 
SCCF RECON,ioos:station:SCCF:18:1,2013-12-02T09:00:00Z,26.6955,-81.8138,1.89,6.55,1111122 
SCCF RECON,ioos:station:SCCF:18:1,2013-12-02T10:00:00Z,26.6955,-81.8138,1.8,6.39,1111122 
SCCF RECON,ioos:station:SCCF:18:1,2013-12-02T11:00:00Z,26.6955,-81.8138,1.72,6.35,1111122 
SCCF RECON,ioos:station:SCCF:18:1,2013-12-02T12:00:00Z,26.6955,-81.8138,1.666,6.24,1111122 
SCCF RECON,ioos:station:SCCF:18:1,2013-12-02T13:00:00Z,26.6955,-81.8138,1.61,6.17,1111122 
SCCF RECON,ioos:station:SCCF:18:1,2013-12-02T14:00:00Z,26.6955,-81.8138,1.55,6.15,1111122 
SCCF RECON,ioos:station:SCCF:18:1,2013-12-02T15:00:00Z,26.6955,-81.8138,1.49,6.11,1111122 
SCCF RECON,ioos:station:SCCF:18:1,2013-12-02T16:00:00Z,26.6955,-81.8138,1.45,6.08,1111122 
SCCF RECON,ioos:station:SCCF:18:1,2013-12-02T17:00:00Z,26.6955,-81.8138,1.45,6.07,1111122 
SCCF RECON,ioos:station:SCCF:18:1,2013-12-02T18:00:00Z,26.6955,-81.8138,1.49,6.39,1111122 
SCCF RECON,ioos:station:SCCF:18:1,2013-12-02T19:00:00Z,26.6955,-81.8138,1.55,6.93,1111122 
SCCF RECON,ioos:station:SCCF:18:1,2013-12-02T20:00:00Z,26.6955,-81.8138,1.61,7.14,1111122 
SCCF RECON,ioos:station:SCCF:18:1,2013-12-02T21:00:00Z,26.6955,-81.8138,1.66,7.1,1111122 
SCCF RECON,ioos:station:SCCF:18:1,2013-12-02T22:00:00Z,26.6955,-81.8138,1.71,7.19,1111122 
SCCF RECON,ioos:station:SCCF:18:1,2013-12-02T23:00:00Z,26.6955,-81.8138,1.73,7.0,1111122 
SCCF RECON,ioos:station:SCCF:18:1,2013-12-03T00:00:00Z,26.6955,-81.8138,1.7,6.74,1111122 
SCCF RECON,ioos:station:SCCF:18:1,2013-12-03T01:00:00Z,26.6955,-81.8138,1.64,6.74,1111122 
SCCF RECON,ioos:station:SCCF:18:1,2013-12-03T02:00:00Z,26.6955,-81.8138,1.61,6.46,1111122 
SCCF RECON,ioos:station:SCCF:18:1,2013-12-03T03:00:00Z,26.6955,-81.8138,1.65,6.3,1111122 
SCCF RECON,ioos:station:SCCF:18:1,2013-12-03T04:00:00Z,26.6955,-81.8138,1.71,6.59,1111122 
SCCF RECON,ioos:station:SCCF:18:1,2013-12-03T05:00:00Z,26.6955,-81.8138,1.8,6.67,1111122 
SCCF RECON,ioos:station:SCCF:18:1,2013-12-03T06:00:00Z,26.6955,-81.8138,1.87,6.85,1111122 
SCCF RECON,ioos:station:SCCF:18:1,2013-12-03T07:00:00Z,26.6955,-81.8138,1.93,6.83,1111122 
SCCF RECON,ioos:station:SCCF:18:1,2013-12-03T08:00:00Z,26.6955,-81.8138,1.98,6.92,1111122 
SCCF RECON,ioos:station:SCCF:18:1,2013-12-03T09:00:00Z,26.6955,-81.8138,2.02,6.64,1111122 
SCCF RECON,ioos:station:SCCF:18:1,2013-12-03T10:00:00Z,26.6955,-81.8138,2.0,6.32,1111122 
SCCF RECON,ioos:station:SCCF:18:1,2013-12-03T11:00:00Z,26.6955,-81.8138,1.9,6.24,1111122 
SCCF RECON,ioos:station:SCCF:18:1,2013-12-03T12:00:00Z,26.6955,-81.8138,1.82,6.18,1111122 
SCCF RECON,ioos:station:SCCF:18:1,2013-12-03T13:00:00Z,26.6955,-81.8138,1.77,6.02,1111122 
SCCF RECON,ioos:station:SCCF:18:1,2013-12-03T14:00:00Z,26.6955,-81.8138,1.7,6.06,1111122 
SCCF RECON,ioos:station:SCCF:18:1,2013-12-03T15:00:00Z,26.6955,-81.8138,1.631,5.98,1111122 
SCCF RECON,ioos:station:SCCF:18:1,2013-12-03T16:00:00Z,26.6955,-81.8138,1.57,6.01,1111122 
SCCF RECON,ioos:station:SCCF:18:1,2013-12-03T17:00:00Z,26.6955,-81.8138,1.55,6.14,1111122 
SCCF RECON,ioos:station:SCCF:18:1,2013-12-03T18:00:00Z,26.6955,-81.8138,1.58,6.27,1111122 
SCCF RECON,ioos:station:SCCF:18:1,2013-12-03T19:00:00Z,26.6955,-81.8138,1.65,6.67,1111122 
SCCF RECON,ioos:station:SCCF:18:1,2013-12-03T20:00:00Z,26.6955,-81.8138,1.73,7.23,1111122 
SCCF RECON,ioos:station:SCCF:18:1,2013-12-03T21:00:00Z,26.6955,-81.8138,1.78,7.15,1111122 
SCCF RECON,ioos:station:SCCF:18:1,2013-12-03T22:00:00Z,26.6955,-81.8138,1.84,7.25,1111122 
SCCF RECON,ioos:station:SCCF:18:1,2013-12-03T23:00:00Z,26.6955,-81.8138,1.85,6.86,1111122 
SCCF RECON,ioos:station:SCCF:18:1,2013-12-04T00:00:00Z,26.6955,-81.8138,1.827,6.71,1111122 
SCCF RECON,ioos:station:SCCF:18:1,2013-12-04T01:00:00Z,26.6955,-81.8138,1.77,6.6,1111122 
SCCF RECON,ioos:station:SCCF:18:1,2013-12-04T02:00:00Z,26.6955,-81.8138,1.717,6.73,1111122 
SCCF RECON,ioos:station:SCCF:18:1,2013-12-04T03:00:00Z,26.6955,-81.8138,1.69,6.12,1111122 
SCCF RECON,ioos:station:SCCF:18:1,2013-12-04T04:00:00Z,26.6955,-81.8138,1.72,6.22,1111122 
SCCF RECON,ioos:station:SCCF:18:1,2013-12-04T05:00:00Z,26.6955,-81.8138,1.79,6.57,1111122 
SCCF RECON,ioos:station:SCCF:18:1,2013-12-04T06:00:00Z,26.6955,-81.8138,1.88,6.45,1111122 
SCCF RECON,ioos:station:SCCF:18:1,2013-12-04T07:00:00Z,26.6955,-81.8138,1.95,6.5,1111122 
SCCF RECON,ioos:station:SCCF:18:1,2013-12-04T08:00:00Z,26.6955,-81.8138,1.99,6.71,1111122 
SCCF RECON,ioos:station:SCCF:18:1,2013-12-04T09:00:00Z,26.6955,-81.8138,2.05,6.67,1111122 
SCCF RECON,ioos:station:SCCF:18:1,2013-12-04T10:00:00Z,26.6955,-81.8138,2.07,6.51,1111122 
SCCF RECON,ioos:station:SCCF:18:1,2013-12-04T11:00:00Z,26.6955,-81.8138,2.02,6.19,1111122 
SCCF RECON,ioos:station:SCCF:18:1,2013-12-04T12:00:00Z,26.6955,-81.8138,1.93,6.23,1111122 
SCCF RECON,ioos:station:SCCF:18:1,2013-12-04T13:00:00Z,26.6955,-81.8138,1.86,6.11,1111122 
SCCF RECON,ioos:station:SCCF:18:1,2013-12-04T14:00:00Z,26.6955,-81.8138,1.82,6.0,1111122 
SCCF RECON,ioos:station:SCCF:18:1,2013-12-04T15:00:00Z,26.6955,-81.8138,1.76,5.97,1111122 
SCCF RECON,ioos:station:SCCF:18:1,2013-12-04T16:00:00Z,26.6955,-81.8138,1.69,6.02,1111122 
SCCF RECON,ioos:station:SCCF:18:1,2013-12-04T17:00:00Z,26.6955,-81.8138,1.634,6.1,1111122 
SCCF RECON,ioos:station:SCCF:18:1,2013-12-04T18:00:00Z,26.6955,-81.8138,1.61,6.14,1111122 
SCCF RECON,ioos:station:SCCF:18:1,2013-12-04T19:00:00Z,26.6955,-81.8138,1.64,6.36,1111122 
SCCF RECON,ioos:station:SCCF:18:1,2013-12-04T20:00:00Z,26.6955,-81.8138,1.71,6.56,1111122 
SCCF RECON,ioos:station:SCCF:18:1,2013-12-04T21:00:00Z,26.6955,-81.8138,1.78,6.59,1111122 
SCCF RECON,ioos:station:SCCF:18:1,2013-12-04T22:00:00Z,26.6955,-81.8138,1.82,6.82,1111122 
SCCF RECON,ioos:station:SCCF:18:1,2013-12-04T23:00:00Z,26.6955,-81.8138,1.86,7.26,1111122 
SCCF RECON,ioos:station:SCCF:18:1,2013-12-05T00:00:00Z,26.6955,-81.8138,1.86,6.82,1111122 
SCCF RECON,ioos:station:SCCF:18:1,2013-12-05T01:00:00Z,26.6955,-81.8138,1.82,6.49,1111122 
SCCF RECON,ioos:station:SCCF:18:1,2013-12-05T02:00:00Z,26.6955,-81.8138,1.767,6.55,1111122 
SCCF RECON,ioos:station:SCCF:18:1,2013-12-05T03:00:00Z,26.6955,-81.8138,1.73,6.31,1111122 
SCCF RECON,ioos:station:SCCF:18:1,2013-12-05T04:00:00Z,26.6955,-81.8138,1.71,5.94,1111122 
SCCF RECON,ioos:station:SCCF:18:1,2013-12-05T05:00:00Z,26.6955,-81.8138,1.74,6.08,1111122 
SCCF RECON,ioos:station:SCCF:18:1,2013-12-05T06:00:00Z,26.6955,-81.8138,1.8,6.35,1111122 
SCCF RECON,ioos:station:SCCF:18:1,2013-12-05T07:00:00Z,26.6955,-81.8138,1.9,6.26,1111122 
SCCF RECON,ioos:station:SCCF:18:1,2013-12-05T08:00:00Z,26.6955,-81.8138,1.97,6.29,1111122 
SCCF RECON,ioos:station:SCCF:18:1,2013-12-05T09:00:00Z,26.6955,-81.8138,2.01,6.56,1111122 
SCCF RECON,ioos:station:SCCF:18:1,2013-12-05T10:00:00Z,26.6955,-81.8138,2.06,6.47,1111122 
SCCF RECON,ioos:station:SCCF:18:1,2013-12-05T11:00:00Z,26.6955,-81.8138,2.07,6.28,1111122 
SCCF RECON,ioos:station:SCCF:18:1,2013-12-05T12:00:00Z,26.6955,-81.8138,2.0,5.98,1111122 
SCCF RECON,ioos:station:SCCF:18:1,2013-12-05T13:00:00Z,26.6955,-81.8138,1.91,6.04,1111122 
SCCF RECON,ioos:station:SCCF:18:1,2013-12-05T14:00:00Z,26.6955,-81.8138,1.86,5.97,1111122 
SCCF RECON,ioos:station:SCCF:18:1,2013-12-05T15:00:00Z,26.6955,-81.8138,1.81,5.9,1111122 
SCCF RECON,ioos:station:SCCF:18:1,2013-12-05T16:00:00Z,26.6955,-81.8138,1.74,5.97,1111122 
SCCF RECON,ioos:station:SCCF:18:1,2013-12-05T17:00:00Z,26.6955,-81.8138,1.66,6.0,1111122 
SCCF RECON,ioos:station:SCCF:18:1,2013-12-05T18:00:00Z,26.6955,-81.8138,1.6,6.09,1111122 
SCCF RECON,ioos:station:SCCF:18:1,2013-12-05T19:00:00Z,26.6955,-81.8138,1.58,6.18,1111122 
SCCF RECON,ioos:station:SCCF:18:1,2013-12-05T20:00:00Z,26.6955,-81.8138,1.62,6.44,1111122 
SCCF RECON,ioos:station:SCCF:18:1,2013-12-05T21:00:00Z,26.6955,-81.8138,1.7,7.19,1111122 
SCCF RECON,ioos:station:SCCF:18:1,2013-12-05T22:00:00Z,26.6955,-81.8138,1.75,6.75,1111122 
SCCF RECON,ioos:station:SCCF:18:1,2013-12-05T23:00:00Z,26.6955,-81.8138,1.8,7.07,1111122 
SCCF RECON,ioos:station:SCCF:18:1,2013-12-06T00:00:00Z,26.6955,-81.8138,1.83,7.22,1111122 
SCCF RECON,ioos:station:SCCF:18:1,2013-12-06T01:00:00Z,26.6955,-81.8138,1.84,6.84,1111122 
SCCF RECON,ioos:station:SCCF:18:1,2013-12-06T02:00:00Z,26.6955,-81.8138,1.8,6.62,1111122 
SCCF RECON,ioos:station:SCCF:18:1,2013-12-06T03:00:00Z,26.6955,-81.8138,1.75,6.37,1111122 
SCCF RECON,ioos:station:SCCF:18:1,2013-12-06T04:00:00Z,26.6955,-81.8138,1.705,6.34,1111122 
SCCF RECON,ioos:station:SCCF:18:1,2013-12-06T05:00:00Z,26.6955,-81.8138,1.68,6.52,1111122 
SCCF RECON,ioos:station:SCCF:18:1,2013-12-06T06:00:00Z,26.6955,-81.8138,1.71,6.49,1111122 
SCCF RECON,ioos:station:SCCF:18:1,2013-12-06T07:00:00Z,26.6955,-81.8138,1.79,6.45,1111122 
SCCF RECON,ioos:station:SCCF:18:1,2013-12-06T08:00:00Z,26.6955,-81.8138,1.88,6.4,1111122 
SCCF RECON,ioos:station:SCCF:18:1,2013-12-06T09:00:00Z,26.6955,-81.8138,1.93,6.51,1111122 
SCCF RECON,ioos:station:SCCF:18:1,2013-12-06T10:00:00Z,26.6955,-81.8138,1.98,6.58,1111122 
SCCF RECON,ioos:station:SCCF:18:1,2013-12-06T11:00:00Z,26.6955,-81.8138,2.028,6.59,1111122 
SCCF RECON,ioos:station:SCCF:18:1,2013-12-06T12:00:00Z,26.6955,-81.8138,2.03,6.25,1111122 
SCCF RECON,ioos:station:SCCF:18:1,2013-12-06T13:00:00Z,26.6955,-81.8138,1.97,6.06,1111122 
SCCF RECON,ioos:station:SCCF:18:1,2013-12-06T14:00:00Z,26.6955,-81.8138,1.88,6.04,1111122 
SCCF RECON,ioos:station:SCCF:18:1,2013-12-06T15:00:00Z,26.6955,-81.8138,1.83,6.02,1111122 
SCCF RECON,ioos:station:SCCF:18:1,2013-12-06T16:00:00Z,26.6955,-81.8138,1.78,6.03,1111122 
SCCF RECON,ioos:station:SCCF:18:1,2013-12-06T17:00:00Z,26.6955,-81.8138,1.71,6.2,1111122 
SCCF RECON,ioos:station:SCCF:18:1,2013-12-06T18:00:00Z,26.6955,-81.8138,1.64,6.24,1111122 
SCCF RECON,ioos:station:SCCF:18:1,2013-12-06T19:00:00Z,26.6955,-81.8138,1.59,6.38,1111122 
SCCF RECON,ioos:station:SCCF:18:1,2013-12-06T20:00:00Z,26.6955,-81.8138,1.61,6.69,1111122 
SCCF RECON,ioos:station:SCCF:18:1,2013-12-06T21:00:00Z,26.6955,-81.8138,1.67,7.0,1111122 
SCCF RECON,ioos:station:SCCF:18:1,2013-12-06T22:00:00Z,26.6955,-81.8138,1.75,7.31,1111122 
SCCF RECON,ioos:station:SCCF:18:1,2013-12-06T23:00:00Z,26.6955,-81.8138,1.81,7.0,1111122 
SCCF RECON,ioos:station:SCCF:18:1,2013-12-07T00:00:00Z,26.6955,-81.8138,1.85,7.19,1111122 
SCCF RECON,ioos:station:SCCF:18:1,2013-12-07T01:00:00Z,26.6955,-81.8138,1.88,7.09,1111122 
SCCF RECON,ioos:station:SCCF:18:1,2013-12-07T02:00:00Z,26.6955,-81.8138,1.87,6.84,1111122 
SCCF RECON,ioos:station:SCCF:18:1,2013-12-07T03:00:00Z,26.6955,-81.8138,1.82,6.48,1111122 
SCCF RECON,ioos:station:SCCF:18:1,2013-12-07T04:00:00Z,26.6955,-81.8138,1.77,6.49,1111122 
SCCF RECON,ioos:station:SCCF:18:1,2013-12-07T05:00:00Z,26.6955,-81.8138,1.72,6.51,1111122 
SCCF RECON,ioos:station:SCCF:18:1,2013-12-07T06:00:00Z,26.6955,-81.8138,1.69,6.43,1111122 
SCCF RECON,ioos:station:SCCF:18:1,2013-12-07T07:00:00Z,26.6955,-81.8138,1.71,6.23,1111122 
SCCF RECON,ioos:station:SCCF:18:1,2013-12-07T08:00:00Z,26.6955,-81.8138,1.77,6.26,1111122 
SCCF RECON,ioos:station:SCCF:18:1,2013-12-07T09:00:00Z,26.6955,-81.8138,1.85,6.2,1111122 
SCCF RECON,ioos:station:SCCF:18:1,2013-12-07T10:00:00Z,26.6955,-81.8138,1.9,6.18,1111122 
SCCF RECON,ioos:station:SCCF:18:1,2013-12-07T11:00:00Z,26.6955,-81.8138,1.93,6.27,1111122 
SCCF RECON,ioos:station:SCCF:18:1,2013-12-07T12:00:00Z,26.6955,-81.8138,1.95,6.16,1111122 
SCCF RECON,ioos:station:SCCF:18:1,2013-12-07T13:00:00Z,26.6955,-81.8138,1.93,6.12,1111122 
SCCF RECON,ioos:station:SCCF:18:1,2013-12-07T14:00:00Z,26.6955,-81.8138,1.86,6.0,1111122 
SCCF RECON,ioos:station:SCCF:18:1,2013-12-07T15:00:00Z,26.6955,-81.8138,1.79,6.02,1111122 
SCCF RECON,ioos:station:SCCF:18:1,2013-12-07T16:00:00Z,26.6955,-81.8138,1.74,6.26,1111122 
SCCF RECON,ioos:station:SCCF:18:1,2013-12-07T17:00:00Z,26.6955,-81.8138,1.699,6.24,1111122 
SCCF RECON,ioos:station:SCCF:18:1,2013-12-07T18:00:00Z,26.6955,-81.8138,1.623,6.38,1111122 
SCCF RECON,ioos:station:SCCF:18:1,2013-12-07T19:00:00Z,26.6955,-81.8138,1.56,6.37,1111122 
SCCF RECON,ioos:station:SCCF:18:1,2013-12-07T20:00:00Z,26.6955,-81.8138,1.5,6.48,1111122 
SCCF RECON,ioos:station:SCCF:18:1,2013-12-07T21:00:00Z,26.6955,-81.8138,1.52,6.53,1111122 
SCCF RECON,ioos:station:SCCF:18:1,2013-12-07T22:00:00Z,26.6955,-81.8138,1.56,7.4,1111122 
SCCF RECON,ioos:station:SCCF:18:1,2013-12-07T23:00:00Z,26.6955,-81.8138,1.63,7.08,1111122 
SCCF RECON,ioos:station:SCCF:18:1,2013-12-08T00:00:00Z,26.6955,-81.8138,1.68,6.9,1111122 
SCCF RECON,ioos:station:SCCF:18:1,2013-12-08T01:00:00Z,26.6955,-81.8138,1.72,7.03,1111122 
SCCF RECON,ioos:station:SCCF:18:1,2013-12-08T02:00:00Z,26.6955,-81.8138,1.75,6.88,1111122 
SCCF RECON,ioos:station:SCCF:18:1,2013-12-08T03:00:00Z,26.6955,-81.8138,1.73,6.86,1111122 
SCCF RECON,ioos:station:SCCF:18:1,2013-12-08T04:00:00Z,26.6955,-81.8138,1.7,6.66,1111122 
SCCF RECON,ioos:station:SCCF:18:1,2013-12-08T05:00:00Z,26.6955,-81.8138,1.64,6.13,1111122 
SCCF RECON,ioos:station:SCCF:18:1,2013-12-08T06:00:00Z,26.6955,-81.8138,1.61,6.1,1111122 
SCCF RECON,ioos:station:SCCF:18:1,2013-12-08T07:00:00Z,26.6955,-81.8138,1.56,6.31,1111122 
SCCF RECON,ioos:station:SCCF:18:1,2013-12-08T08:00:00Z,26.6955,-81.8138,1.55,6.32,1111122 
SCCF RECON,ioos:station:SCCF:18:1,2013-12-08T09:00:00Z,26.6955,-81.8138,1.6,6.15,1111122 
SCCF RECON,ioos:station:SCCF:18:1,2013-12-08T10:00:00Z,26.6955,-81.8138,1.68,6.28,1111122 
SCCF RECON,ioos:station:SCCF:18:1,2013-12-08T11:00:00Z,26.6955,-81.8138,1.75,6.17,1111122 
SCCF RECON,ioos:station:SCCF:18:1,2013-12-08T12:00:00Z,26.6955,-81.8138,1.79,6.18,1111122 
SCCF RECON,ioos:station:SCCF:18:1,2013-12-08T13:00:00Z,26.6955,-81.8138,1.83,6.2,1111122 
SCCF RECON,ioos:station:SCCF:18:1,2013-12-08T14:00:00Z,26.6955,-81.8138,1.85,6.1,1111122 
SCCF RECON,ioos:station:SCCF:18:1,2013-12-08T15:00:00Z,26.6955,-81.8138,1.8,6.11,1111122 
SCCF RECON,ioos:station:SCCF:18:1,2013-12-08T16:00:00Z,26.6955,-81.8138,1.73,6.17,1111122 
SCCF RECON,ioos:station:SCCF:18:1,2013-12-08T17:00:00Z,26.6955,-81.8138,1.674,6.19,1111122 
SCCF RECON,ioos:station:SCCF:18:1,2013-12-08T18:00:00Z,26.6955,-81.8138,1.611,6.52,1111122 
SCCF RECON,ioos:station:SCCF:18:1,2013-12-08T19:00:00Z,26.6955,-81.8138,1.56,6.65,1111122 
SCCF RECON,ioos:station:SCCF:18:1,2013-12-08T20:00:00Z,26.6955,-81.8138,1.51,6.38,1111122 
SCCF RECON,ioos:station:SCCF:18:1,2013-12-08T21:00:00Z,26.6955,-81.8138,1.49,6.65,1111122 
SCCF RECON,ioos:station:SCCF:18:1,2013-12-08T22:00:00Z,26.6955,-81.8138,1.58,6.89,1111122 
SCCF RECON,ioos:station:SCCF:18:1,2013-12-08T23:00:00Z,26.6955,-81.8138,1.67,7.09,1111122 
SCCF RECON,ioos:station:SCCF:18:1,2013-12-09T00:00:00Z,26.6955,-81.8138,1.74,7.17,1111122 
SCCF RECON,ioos:station:SCCF:18:1,2013-12-09T01:00:00Z,26.6955,-81.8138,1.79,7.07,1111122 
SCCF RECON,ioos:station:SCCF:18:1,2013-12-09T02:00:00Z,26.6955,-81.8138,1.84,7.26,1111122 
SCCF RECON,ioos:station:SCCF:18:1,2013-12-09T03:00:00Z,26.6955,-81.8138,1.86,7.0,1111122 
SCCF RECON,ioos:station:SCCF:18:1,2013-12-09T04:00:00Z,26.6955,-81.8138,1.847,6.8,1111122 
SCCF RECON,ioos:station:SCCF:18:1,2013-12-09T05:00:00Z,26.6955,-81.8138,1.781,6.39,1111122 
SCCF RECON,ioos:station:SCCF:18:1,2013-12-09T06:00:00Z,26.6955,-81.8138,1.74,6.15,1111122 
SCCF RECON,ioos:station:SCCF:18:1,2013-12-09T07:00:00Z,26.6955,-81.8138,1.68,6.07,1111122 
SCCF RECON,ioos:station:SCCF:18:1,2013-12-09T08:00:00Z,26.6955,-81.8138,1.63,6.16,1111122 
SCCF RECON,ioos:station:SCCF:18:1,2013-12-09T09:00:00Z,26.6955,-81.8138,1.6,6.18,1111122 
SCCF RECON,ioos:station:SCCF:18:1,2013-12-09T10:00:00Z,26.6955,-81.8138,1.6,6.15,1111122 
SCCF RECON,ioos:station:SCCF:18:1,2013-12-09T11:00:00Z,26.6955,-81.8138,1.64,6.11,1111122 
SCCF RECON,ioos:station:SCCF:18:1,2013-12-09T12:00:00Z,26.6955,-81.8138,1.72,5.97,1111122 
SCCF RECON,ioos:station:SCCF:18:1,2013-12-09T13:00:00Z,26.6955,-81.8138,1.77,5.93,1111122 
SCCF RECON,ioos:station:SCCF:18:1,2013-12-09T14:00:00Z,26.6955,-81.8138,1.8,6.11,1111122 
SCCF RECON,ioos:station:SCCF:18:1,2013-12-09T15:00:00Z,26.6955,-81.8138,1.79,6.17,1111122 
SCCF RECON,ioos:station:SCCF:18:1,2013-12-09T16:00:00Z,26.6955,-81.8138,1.79,6.13,1111122 
SCCF RECON,ioos:station:SCCF:18:1,2013-12-09T17:00:00Z,26.6955,-81.8138,1.73,6.17,1111122 
SCCF RECON,ioos:station:SCCF:18:1,2013-12-09T18:00:00Z,26.6955,-81.8138,1.661,6.31,1111122 
SCCF RECON,ioos:station:SCCF:18:1,2013-12-09T19:00:00Z,26.6955,-81.8138,1.61,6.39,1111122 
SCCF RECON,ioos:station:SCCF:18:1,2013-12-09T20:00:00Z,26.6955,-81.8138,1.57,6.87,1111122 
SCCF RECON,ioos:station:SCCF:18:1,2013-12-09T21:00:00Z,26.6955,-81.8138,1.521,6.04,1111122 
SCCF RECON,ioos:station:SCCF:18:1,2013-12-09T22:00:00Z,26.6955,-81.8138,1.55,6.82,1111122 
SCCF RECON,ioos:station:SCCF:18:1,2013-12-09T23:00:00Z,26.6955,-81.8138,1.64,6.58,1111122 
SCCF RECON,ioos:station:SCCF:18:1,2013-12-10T00:00:00Z,26.6955,-81.8138,1.72,6.75,1111122 
SCCF RECON,ioos:station:SCCF:18:1,2013-12-10T01:00:00Z,26.6955,-81.8138,1.77,6.63,1111122 
SCCF RECON,ioos:station:SCCF:18:1,2013-12-10T02:00:00Z,26.6955,-81.8138,1.8,6.31,1111122 
SCCF RECON,ioos:station:SCCF:18:1,2013-12-10T03:00:00Z,26.6955,-81.8138,1.86,6.39,1111122 
SCCF RECON,ioos:station:SCCF:18:1,2013-12-10T04:00:00Z,26.6955,-81.8138,1.89,6.38,1111122 
SCCF RECON,ioos:station:SCCF:18:1,2013-12-10T05:00:00Z,26.6955,-81.8138,1.869,6.22,1111122 
SCCF RECON,ioos:station:SCCF:18:1,2013-12-10T06:00:00Z,26.6955,-81.8138,1.82,5.92,1111122 
SCCF RECON,ioos:station:SCCF:18:1,2013-12-10T07:00:00Z,26.6955,-81.8138,1.76,5.65,1111122 
SCCF RECON,ioos:station:SCCF:18:1,2013-12-10T08:00:00Z,26.6955,-81.8138,1.705,5.69,1111122 
SCCF RECON,ioos:station:SCCF:18:1,2013-12-10T09:00:00Z,26.6955,-81.8138,1.65,5.72,1111122 
SCCF RECON,ioos:station:SCCF:18:1,2013-12-10T10:00:00Z,26.6955,-81.8138,1.62,5.67,1111122 
SCCF RECON,ioos:station:SCCF:18:1,2013-12-10T11:00:00Z,26.6955,-81.8138,1.62,5.62,1111122 
SCCF RECON,ioos:station:SCCF:18:1,2013-12-10T12:00:00Z,26.6955,-81.8138,1.67,5.74,1111122 
SCCF RECON,ioos:station:SCCF:18:1,2013-12-10T13:00:00Z,26.6955,-81.8138,1.742,5.63,1111122 
SCCF RECON,ioos:station:SCCF:18:1,2013-12-10T14:00:00Z,26.6955,-81.8138,1.81,5.68,1111122 
SCCF RECON,ioos:station:SCCF:18:1,2013-12-10T15:00:00Z,26.6955,-81.8138,1.84,5.69,1111122 
SCCF RECON,ioos:station:SCCF:18:1,2013-12-10T16:00:00Z,26.6955,-81.8138,1.87,5.78,1111122 
SCCF RECON,ioos:station:SCCF:18:1,2013-12-10T17:00:00Z,26.6955,-81.8138,1.879,6.02,1111122 
SCCF RECON,ioos:station:SCCF:18:1,2013-12-10T18:00:00Z,26.6955,-81.8138,1.82,6.35,1111122 
SCCF RECON,ioos:station:SCCF:18:1,2013-12-10T19:00:00Z,26.6955,-81.8138,1.76,6.1,1111122 
SCCF RECON,ioos:station:SCCF:18:1,2013-12-10T20:00:00Z,26.6955,-81.8138,1.71,5.76,1111122 
SCCF RECON,ioos:station:SCCF:18:1,2013-12-10T21:00:00Z,26.6955,-81.8138,1.67,5.81,1111122 
SCCF RECON,ioos:station:SCCF:18:1,2013-12-10T22:00:00Z,26.6955,-81.8138,1.65,6.88,1111122 
SCCF RECON,ioos:station:SCCF:18:1,2013-12-10T23:00:00Z,26.6955,-81.8138,1.65,6.1,1111122 
SCCF RECON,ioos:station:SCCF:18:1,2013-12-11T00:00:00Z,26.6955,-81.8138,1.693,6.03,1111122 
SCCF RECON,ioos:station:SCCF:18:1,2013-12-11T01:00:00Z,26.6955,-81.8138,1.77,6.41,1111122 
SCCF RECON,ioos:station:SCCF:18:1,2013-12-11T02:00:00Z,26.6955,-81.8138,1.82,6.44,1111122 
SCCF RECON,ioos:station:SCCF:18:1,2013-12-11T03:00:00Z,26.6955,-81.8138,1.85,5.86,1111122 
SCCF RECON,ioos:station:SCCF:18:1,2013-12-11T04:00:00Z,26.6955,-81.8138,1.88,6.05,1111122 
SCCF RECON,ioos:station:SCCF:18:1,2013-12-11T05:00:00Z,26.6955,-81.8138,1.87,5.9,1111122 
SCCF RECON,ioos:station:SCCF:18:1,2013-12-11T06:00:00Z,26.6955,-81.8138,1.83,5.94,1111122 
SCCF RECON,ioos:station:SCCF:18:1,2013-12-11T07:00:00Z,26.6955,-81.8138,1.75,6.01,1111122 
SCCF RECON,ioos:station:SCCF:18:1,2013-12-11T08:00:00Z,26.6955,-81.8138,1.696,5.7,1111122 
SCCF RECON,ioos:station:SCCF:18:1,2013-12-11T09:00:00Z,26.6955,-81.8138,1.64,6.02,1111122 
SCCF RECON,ioos:station:SCCF:18:1,2013-12-11T10:00:00Z,26.6955,-81.8138,1.6,5.68,1111122 
SCCF RECON,ioos:station:SCCF:18:1,2013-12-11T11:00:00Z,26.6955,-81.8138,1.53,5.62,1111122 
SCCF RECON,ioos:station:SCCF:18:1,2013-12-11T12:00:00Z,26.6955,-81.8138,1.49,5.64,1111122 
SCCF RECON,ioos:station:SCCF:18:1,2013-12-11T13:00:00Z,26.6955,-81.8138,1.48,5.59,1111122 
SCCF RECON,ioos:station:SCCF:18:1,2013-12-11T14:00:00Z,26.6955,-81.8138,1.5,5.66,1111122 
SCCF RECON,ioos:station:SCCF:18:1,2013-12-11T15:00:00Z,26.6955,-81.8138,1.54,5.84,1111122 
SCCF RECON,ioos:station:SCCF:18:1,2013-12-11T16:00:00Z,26.6955,-81.8138,1.6,6.74,1111122 
SCCF RECON,ioos:station:SCCF:18:1,2013-12-11T17:00:00Z,26.6955,-81.8138,1.65,6.16,1111122 
SCCF RECON,ioos:station:SCCF:18:1,2013-12-11T18:00:00Z,26.6955,-81.8138,1.67,6.51,1111122 
SCCF RECON,ioos:station:SCCF:18:1,2013-12-11T19:00:00Z,26.6955,-81.8138,1.669,6.8,1111122 
SCCF RECON,ioos:station:SCCF:18:1,2013-12-11T20:00:00Z,26.6955,-81.8138,1.64,6.92,1111122 
SCCF RECON,ioos:station:SCCF:18:1,2013-12-11T21:00:00Z,26.6955,-81.8138,1.62,6.52,1111122 